Location: Aufkirchen
(47.9603°N, 11.3653°E)
Time: 07:25:54
(UTC+01:00)

Transit 2A - Pass Details

Date: 01 December 2020
Orbit: 599 x 960 km, 66.7° (Epoch: 25 January)

Event Time Altitude Azimuth Distance (km) Brightness Sun altitude
Rises 15:17:27 0° 155° (SSE) 3,625 9.8 7.8°
Reaches altitude 10° 15:21:23 10° 132° (SE) 2,666 8.8 7.3°
Maximum altitude 15:24:22 14° 103° (ESE) 2,368 8.3 6.9°
Drops below altitude 10° 15:27:18 10° 74° (ENE) 2,610 8.2 6.6°
Sets 15:31:04 0° 50° (NE) 3,494 8.7 6.1°
